Location: Elmhurst
(37.7519°N, 122.1719°W)
Time: 12:03:43
(UTC+00:00)

Daily predictions for brighter satellites

Satellite Brightness Start Highest point End
(mag) Time Altitude Azimuth Time Altitude Azimuth Time Altitude Azimuth
SL-27 R/B 2.7 12:01:26 10° S 12:04:43 62° ESE 12:08:05 10° NNE
Cosmos 1689 Rocket 3.9 12:07:07 15° W 12:07:19 15° W 12:09:05 10° WNW
Cosmos 389 Rocket 3.3 12:09:34 10° N 12:13:08 55° E 12:16:41 10° SSE
ARIANE 5 R/B 4.4 12:11:33 10° NNW 12:14:16 15° WNW 12:17:01 10° W
Cosmos 2082 Rocket 2.4 12:09:31 12° SW 12:14:39 55° WNW 12:20:12 10° NNE
PSLV R/B 2.6 12:13:34 10° WNW 12:16:24 80° SSW 12:19:11 10° ESE
SJ 16-02 3.6 12:18:07 10° WNW 12:19:04 11° WNW 12:20:03 10° NW
PSLV R/B 4.2 12:17:59 10° S 12:21:54 44° W 12:25:52 10° NNW
Cosmos 1544 Rocket 4.4 12:20:43 10° SW 12:24:33 31° WNW 12:28:26 10° NNW
Meteor 1-31 Rocket 3.8 12:21:13 10° NNE 12:24:54 46° E 12:28:35 10° S
GENESIS II 4.3 12:21:55 10° SW 12:25:50 71° WNW 12:29:54 10° NNE
Meteor 1-22 Rocket 4.1 12:21:50 10° SSW 12:27:06 69° W 12:32:23 10° N
TELKOM 3 3.2 12:28:24 10° WSW 12:30:41 51° NW 12:32:46 10° NE
Cosmos 2369 4.0 12:26:13 10° NW 12:31:35 46° WSW 12:36:55 10° S
Meteor 1-4 Rocket 2.6 12:28:41 10° N 12:32:21 87° E 12:36:04 10° S
Cosmos 405 Rocket 3.1 12:28:27 10° SSW 12:32:23 50° W 12:36:21 10° N
Cosmos 1455 Rocket 4.5 12:30:33 10° SW 12:33:52 21° WNW 12:37:12 10° NNW
GPS 2-04 Rocket1 2.5 12:31:07 10° WSW 12:34:36 61° S 12:37:59 10° E
ADEOS 4.4 12:30:57 10° N 12:35:37 34° WNW 12:40:16 10° SW
Atlas Centaur 2 3.0 12:29:00 10° WSW 12:35:51 43° S 12:41:22 10° ESE
USA 215 3.3 12:30:28 10° SE 12:36:58 73° SW 12:43:31 10° NW
